Regional Weather Roundup
Issued by NWS

Home | Current Version | Previous Version | Text Only | Print | Product List | Glossary On
Versions: 1 2 3 4 5 6 7 8 9 10 11 12 13 14 15 16 17 18 19 20 21 22 23 24 25 26 27 28 29 30 31 32 33 34 35 36 37 38 39 40 41 42 43 44 45 46 47 48 49 50
000
ASUS44 KFWD 231315
RWRTX
NORTH TEXAS HOURLY WEATHER ROUNDUP
NATIONAL WEATHER SERVICE FORT WORTH TX
800 AM CDT SAT MAY 23 2015

NOTE: "FAIR" INDICATES FEW OR NO CLOUDS BELOW 12,000 FEET WITH NO
SIGNIFICANT WEATHER AND/OR OBSTRUCTIONS TO VISIBILITY.

TXZ118-119-231400-
DALLAS/FORT WORTH METROPLEX

CITY           SKY/WX    TMP DP  RH WIND       PRES   REMARKS
DFW AIRPORT    LGT RAIN  68  68 100 SE13      30.10R FOG
DALLAS LOVE    CLOUDY    70  68  93 SE14      30.11R FOG
FTW MEACHAM    CLOUDY    71  69  93 SE12      30.09R FOG
DAL-EXECUTIVE  CLOUDY    69  68  96 SE13      30.11R FOG
FTW-ALLIANCE   CLOUDY    70  69  97 SE13      30.09S FOG
FTW-NAS-JRB    CLOUDY    71  69  93 SE10      30.09S
FTW-SPINKS     CLOUDY    70  68  94 SE6       30.11S FOG
ARLINGTON      CLOUDY    72  68  87 SE9       30.10S FOG
GRAND PRAIRIE  CLOUDY    70  70 100 SE7       30.12R FOG
ADDISON        CLOUDY    70  66  88 SE12G21   30.12F FOG
MESQUITE       LGT RAIN  70  68  94 SE10      30.12F
LANCASTER      CLOUDY    69  66  90 SE9       30.12S FOG
$$

TXZ091>094-102>105-117-120-121-131>134-231400-
NORTH CENTRAL TEXAS

CITY           SKY/WX    TMP DP  RH WIND       PRES   REMARKS
SHRMAN/DENISON CLOUDY    67  67  99 SE10      30.13S FOG
GAINESVILLE    CLOUDY    66  66  98 SE10      30.13S FOG
BOWIE          FOG       67  67 100 SE7       30.09S VSB 1/2
BRIDGEPORT     CLOUDY    70  70 100 SE6       30.10S FOG
DECATUR        FOG       68  68 100 SE7       30.10S VSB 1
DENTON         CLOUDY    69  68  96 SE14      30.10R FOG
MCKINNEY       CLOUDY    69  67  93 SE8       30.13R
GREENVILLE     CLOUDY    68  64  88 SE9       30.14F
ROCKWALL       CLOUDY    69  68  97 SE9       30.12S FOG
TERRELL        CLOUDY    70  68  93 SE10      30.13F FOG
WAXAHACHIE     CLOUDY    69  69 100 SE7       30.12S FOG
CLEBURNE       CLOUDY    70  70 100 SE12      30.11F FOG
GRANBURY         N/A     72  70  92 SE10      30.08F FOG
$$

TXZ083>090-098>101-113>116-127>130-139>142-154-155-231400-
WESTERN NORTH TEXAS

CITY           SKY/WX    TMP DP  RH WIND       PRES   REMARKS
WICHITA FALLS  FOG       67  67 100 SE13      30.06F VSB 1
WF-KICKAPOO    CLOUDY    70  68  94 SE12      30.07F FOG
VERNON         CLOUDY    66  63  89 SE10      30.04F VSB 1/4
ABILENE        CLOUDY    73  68  84 SE16G25   30.00F
BRECKENRIDGE   CLOUDY    74  70  87 SE14      30.03S
GRAHAM         CLOUDY    70  70 100 SE8G17    30.05R FOG
MINERAL WELLS  CLOUDY    70  69  97 SE13      30.07R FOG
STEPHENVILLE   CLOUDY    71  68  91 SE12G17   30.10S
COMANCHE       CLOUDY    72  72 100 SE14G20   30.05F
BROWNWOOD      CLOUDY    73  70  88 SE12G24   30.03S
COLEMAN        CLOUDY    73  70  91 SE10G16   30.03S
BRADY          LGT RAIN  72  70  94 SE14      30.01S
$$

TXZ143>147-156>162-174-175-231400-
CENTRAL TEXAS

CITY           SKY/WX    TMP DP  RH WIND       PRES   REMARKS
WACO           CLOUDY    72  70  93 SE10      30.10R FOG
WACO-TSTC      CLOUDY    73  72  94 SE5       30.10S FOG
WACO-MCGREGOR  CLOUDY    72  66  83 SE10      30.12R
HILLSBORO      CLOUDY    71  68  92 SE9       30.11S THUNDER FOG
CORSICANA      LGT RAIN  72  69  90 SE10      30.14R FOG
MEXIA          CLOUDY    71  70  96 E10G20    30.12R FOG
HEARNE         CLOUDY    74  72  92 SE6       30.12S
CAMERON        CLOUDY    73  72  96 SE3       30.12R
TEMPLE         CLOUDY    72  68  88 SE12      30.10R
KILLEEN        CLOUDY    72  72 100 SE12      30.09R FOG
KILLEEN-SKYLRK CLOUDY    73  68  83 SE9       30.10R
FORT HOOD      CLOUDY    72  71  97 SE12G18   30.09R
GATESVILLE     CLOUDY    73  72  94 S7        30.12R FOG
HAMILTON       CLOUDY    72  72 100 S18G25    30.09S
LAMPASAS       CLOUDY    72  70  95 SE7       30.09R
$$

TXZ095>097-106>112-122>126-135>138-148>153-164>167-231400-
EAST TEXAS

CITY           SKY/WX    TMP DP  RH WIND       PRES   REMARKS
PARIS          PTSUNNY   64  57  77 SE15      30.18R
SULPHUR SPRNGS CLOUDY    67  65  94 SE6       30.18S
MOUNT PLEASANT PTSUNNY   66  61  83 SE8       30.20S
GILMER         CLOUDY    67  64  93 E7        30.18S
MINEOLA        PTSUNNY   70  66  88 SE7       30.18R
TYLER          CLOUDY    71  66  84 SE8       30.17R
LONGVIEW       CLOUDY    67  64  90 E5        30.18R
MARSHALL       PTSUNNY   69  63  82 SE3       30.21R
ATHENS         CLOUDY    68  68 100 SE6       30.14R FOG
PALESTINE      CLOUDY    71  69  93 SE7       30.16S
JACKSONVILLE   CLOUDY    70  67  92 SE5       30.19R
HENDERSON      CLOUDY    69  66  90 SE6       30.19S
NACOGDOCHES      N/A     68  64  88 SE7       30.17S
LUFKIN         CLOUDY    72  66  81 E6        30.16R
$$

SUPPLEMENTAL OBSERVATIONS (CENTRAL)

CITY           SKY/WX    TMP DP  RH WIND       PRES   REMARKS
LAKE TEXOMA      N/A     64  63  94 E6          N/A
CADDO GRASSLND   N/A     66  61  82 SE6         N/A
PAT MAYSE LAKE   N/A     64  63  94 E7          N/A
GREENVILLE       N/A     68  64  88 SE7         N/A
CEDAR HILL       N/A     70  66  88 SE7         N/A
ATHENS           N/A     70  64  83 SE10        N/A
LAKE LIMESTONE   N/A     73  70  88 SE7         N/A
MCGREGOR         N/A     73  70  88 SE9         N/A
TEMPLE           N/A     72  68  88 SE7         N/A
$$

SUPPLEMENTAL OBSERVATIONS (WEST)

CITY           SKY/WX    TMP DP  RH WIND       PRES   REMARKS
MILLERS CREEK    N/A     72  70  94 SE13        N/A
POSSUM KINGDOM   N/A     70  68  94 SE10        N/A
LBJ GRASSLAND    N/A     70  68  94 SE9         N/A
GRANBURY         N/A     72  68  88 SE13        N/A
COMANCHE         N/A     72  68  88 SE16G22     N/A
HAMBY            N/A     73  68  83 SE8G17      N/A
$$

SUPPLEMENTAL OBSERVATIONS (EAST)

CITY           SKY/WX    TMP DP  RH WIND       PRES   REMARKS
CLARKSVILLE      N/A     64  61  88 SE6         N/A
TEXARKANA        N/A     64  55  72 E2          N/A
LINDEN           N/A     64  57  77 E2          N/A
CADDO LAKE       N/A     70  63  78 E3          N/A
GILMER           N/A     66  61  82 SE6         N/A
HENDERSON        N/A     70  64  83 SE6         N/A
LUFKIN           N/A     72  66  83 MISG        N/A
N SABINE NF      N/A     66  64  94 MISG        N/A
S SABINE NF      N/A     73  68  83 CALM        N/A
$$

SUPPLEMENTAL OBSERVATIONS ARE A COLLECTION OF AUTOMATED INSTRUMENTS
THAT ARE MAINTAINED BY A VARIETY OF FEDERAL AND STATE AGENCIES.
CERTAIN ELEMENTS...SUCH AS HUMIDITY VALUES AND SUSTAINED WIND
SPEEDS...MAY BE APPROXIMATED.



USA.gov is the U.S. government's official web portal to all federal, state and local government web resources and services.